Tracking 35331 objects as of 16-Sep-2026
HD Live streaming from Space Station
objects crossing your sky now

FOSSASAT2E19 (TAT-E)

Track FOSSASAT2E19 (TAT-E) now!
10-day predictions
FOSSASAT2E19 (TAT-E) is classified as:


NORAD ID: 62676
Int'l Code: 2025-009BV
Launch date: January 14, 2025
Source: Spain (SPN)
Launch site: AIR FORCE WESTERN TEST RANGE (AFWTR)

Uplink (MHz):
Downlink (MHz): 401.700
Beacon (MHz):
Mode: LoRa
Call sign:
Status: Unknown

Your satellite tracking list
Your tracking list is empty




NASA's NSSDC Master Catalog

Two Line Element Set (TLE):
1 62676U 25009BV  26258.67848957  .00002452  00000-0  11186-3 0  9993
2 62676  97.3898 335.3350 0005870  37.8087 322.3560 15.21547755 92451
Source of the keplerian elements: AFSPC